Date String (YYYY-MM-DD hh:mm:ss) UTC,Instrument flags,absolute air pressure of the measurement (hPa),sample flow rate (lpm),inlet stack bypass flow (lpm),air temperature of the measurement (°C),ambient temperature measured by the external sensor (°C),aerosol sample conditioner tube jacket temperature (°C),OPC LED temperature (°C),internal box temperature (°C),relative humidity of the measurement (%),span deviation,mass concentration of particles derived from Lorenz-Mie calculation of OPC scattering (μg/m³),mass concentration of particles derived from Lorenz-Mie calculation of OPC scattering (μg/m³),mass concentration of particles derived from Lorenz-Mie calculation of OPC scattering (μg/m³)
DateTimeUTC,F1_M11,P_M11,Q1_M11,Q2_M11,T1_M11,T2_M11,T3_M11,T4_M11,T5_M11,U1_M11,ZSPAN_M11,X0_M11,X2_M11,X1_M11
2024-04-26 05:00:00,SystemResetWarning,0818.3,5.00,000.00,025.9,025.1,000.0,034.4,027.7,019.5,0000.0,0003.64,0001.25,0000.86
2024-04-26 05:01:00,SystemResetWarning,0818.4,5.00,000.00,025.9,025.1,000.0,034.4,027.7,019.7,0000.0,0003.79,0001.30,0000.86
2024-04-26 05:02:00,SystemResetWarning,0818.4,4.99,000.00,025.9,025.1,000.0,034.4,027.7,019.9,0000.0,0004.62,0001.35,0000.86
2024-04-26 05:03:00,SystemResetWarning,0818.3,5.00,000.00,025.9,025.1,000.0,034.4,027.7,019.9,0000.0,0005.74,0001.42,0000.87
2024-04-26 05:04:00,SystemResetWarning,0818.3,5.01,000.00,025.9,025.1,000.0,034.4,027.7,020.1,0000.0,0005.74,0001.46,0000.88
2024-04-26 05:05:00,SystemResetWarning,0818.3,5.01,000.00,025.9,025.1,000.0,034.4,027.7,020.1,0000.0,0005.16,0001.47,0000.90
2024-04-26 05:06:00,SystemResetWarning,0818.3,5.00,000.00,025.9,025.1,000.0,034.4,027.7,020.1,0000.0,0005.00,0001.52,0000.91
2024-04-26 05:07:00,SystemResetWarning,0818.3,5.00,000.00,025.9,025.1,000.0,034.4,027.7,020.0,0000.0,0005.03,0001.56,0000.94
2024-04-26 05:08:00,SystemResetWarning,0818.3,4.99,000.00,025.9,025.1,000.0,034.4,027.7,019.8,0000.0,0005.10,0001.63,0000.99
2024-04-26 05:09:00,SystemResetWarning,0818.3,5.00,000.00,025.9,025.1,000.0,034.4,027.7,019.9,0000.0,0005.13,0001.68,0001.04
2024-04-26 05:10:00,SystemResetWarning,0818.4,5.01,000.00,025.9,025.1,000.0,034.4,027.7,019.8,0000.0,0005.01,0001.71,0001.09
2024-04-26 05:11:00,SystemResetWarning,0818.4,5.01,000.00,025.9,025.1,000.0,034.4,027.7,019.7,0000.0,0004.72,0001.76,0001.15
2024-04-26 05:12:00,SystemResetWarning,0818.4,5.00,000.00,025.9,025.1,000.0,034.4,027.7,019.9,0000.0,0004.75,0001.80,0001.20
2024-04-26 05:13:00,SystemResetWarning,0818.4,5.00,000.00,025.9,025.1,000.0,034.4,027.7,020.2,0000.0,0004.24,0001.79,0001.26
2024-04-26 05:14:00,SystemResetWarning,0818.4,5.01,000.00,025.9,025.1,000.0,034.4,027.7,020.2,0000.0,0002.98,0001.85,0001.31
2024-04-26 05:15:00,SystemResetWarning,0818.4,5.00,000.00,025.9,025.1,000.0,034.4,027.7,020.2,0000.0,0003.07,0001.94,0001.38
2024-04-26 05:16:00,SystemResetWarning,0818.4,5.00,000.00,025.9,025.1,000.0,034.4,027.7,020.1,0000.0,0003.13,0002.02,0001.45
2024-04-26 05:17:00,SystemResetWarning,0818.4,5.00,000.00,025.9,025.1,000.0,034.4,027.8,020.2,0000.0,0003.14,0002.05,0001.51
2024-04-26 05:18:00,SystemResetWarning,0818.4,5.00,000.00,025.9,025.1,000.0,034.4,027.8,020.2,0000.0,0003.19,0002.10,0001.56
2024-04-26 05:19:00,SystemResetWarning,0818.4,5.00,000.00,025.9,025.2,000.0,034.4,027.8,020.2,0000.0,0003.33,0002.13,0001.59
2024-04-26 05:20:00,SystemResetWarning,0818.4,4.99,000.00,025.9,025.2,000.0,034.4,027.8,020.4,0000.0,0003.48,0002.15,0001.62
2024-04-26 05:21:00,SystemResetWarning,0818.3,5.00,000.00,025.9,025.2,000.0,034.4,027.8,020.2,0000.0,0003.61,0002.20,0001.66
2024-04-26 05:22:00,SystemResetWarning,0818.3,5.00,000.00,025.9,025.2,000.0,034.4,027.8,020.2,0000.0,0003.57,0002.22,0001.68
2024-04-26 05:23:00,SystemResetWarning,0818.3,5.00,000.00,025.9,025.2,000.0,034.4,027.8,020.3,0000.0,0003.68,0002.29,0001.71
2024-04-26 05:24:00,SystemResetWarning,0818.3,5.00,000.00,025.9,025.2,000.0,034.5,027.8,020.3,0000.0,0004.76,0002.36,0001.72
2024-04-26 05:25:00,SystemResetWarning,0818.3,5.00,000.00,025.9,025.1,000.0,034.5,027.8,020.3,0000.0,0006.57,0002.39,0001.73
2024-04-26 05:26:00,SystemResetWarning,0818.3,5.00,000.00,025.9,025.1,000.0,034.5,027.8,020.2,0000.0,0006.70,0002.40,0001.74
2024-04-26 05:27:00,SystemResetWarning,0818.3,5.00,000.00,025.9,025.1,000.0,034.5,027.8,020.0,0000.0,0006.90,0002.42,0001.73
2024-04-26 05:28:00,SystemResetWarning,0818.3,5.00,000.00,025.9,025.1,000.0,034.4,027.8,020.1,0000.0,0006.95,0002.43,0001.71
2024-04-26 05:29:00,SystemResetWarning,0818.3,4.99,000.00,025.9,025.1,000.0,034.4,027.8,020.1,0000.0,0007.26,0002.41,0001.71
2024-04-26 05:30:00,SystemResetWarning,0818.3,5.00,000.00,025.9,025.1,000.0,034.4,027.7,020.2,0000.0,0007.58,0002.43,0001.73
2024-04-26 05:31:00,SystemResetWarning,0818.3,5.00,000.00,025.9,025.1,000.0,034.4,027.7,020.3,0000.0,0007.59,0002.49,0001.74
2024-04-26 05:32:00,SystemResetWarning,0818.3,5.01,000.00,025.9,025.1,000.0,034.4,027.7,020.3,0000.0,0007.55,0002.50,0001.74
2024-04-26 05:33:00,SystemResetWarning,0818.3,5.00,000.00,025.9,025.0,000.0,034.4,027.7,020.4,0000.0,0007.57,0002.52,0001.75
2024-04-26 05:34:00,SystemResetWarning,0818.3,5.00,000.00,025.9,025.0,000.0,034.4,027.7,020.5,0000.0,0007.50,0002.47,0001.75
2024-04-26 05:35:00,SystemResetWarning,0818.3,5.00,000.00,025.9,025.0,000.0,034.4,027.7,020.4,0000.0,0006.57,0002.45,0001.77
2024-04-26 05:36:00,SystemResetWarning,0818.3,4.99,000.00,025.9,025.0,000.0,034.4,027.7,020.5,0000.0,0005.00,0002.48,0001.79
2024-04-26 05:37:00,SystemResetWarning,0818.4,4.99,000.00,025.9,025.0,000.0,034.4,027.7,020.7,0000.0,0004.81,0002.44,0001.80
2024-04-26 05:38:00,SystemResetWarning,0818.4,5.00,000.00,025.9,025.0,000.0,034.4,027.6,020.7,0000.0,0004.57,0002.39,0001.80
2024-04-26 05:39:00,SystemResetWarning,0818.4,5.01,000.00,025.8,025.0,000.0,034.4,027.6,020.9,0000.0,0004.60,0002.41,0001.82
2024-04-26 05:40:00,SystemResetWarning,0818.4,5.01,000.00,025.8,025.0,000.0,034.4,027.6,020.9,0000.0,0004.36,0002.48,0001.82
2024-04-26 05:41:00,SystemResetWarning,0818.4,5.00,000.00,025.8,025.0,000.0,034.4,027.6,021.1,0000.0,0004.05,0002.50,0001.83
2024-04-26 05:42:00,SystemResetWarning,0818.5,5.01,000.00,025.8,024.9,000.0,034.4,027.6,021.1,0000.0,0003.88,0002.45,0001.85
2024-04-26 05:43:00,SystemResetWarning,0818.4,4.99,000.00,025.8,024.9,000.0,034.4,027.6,021.1,0000.0,0004.00,0002.46,0001.86
2024-04-26 05:44:00,SystemResetWarning,0818.4,4.99,000.00,025.8,024.9,000.0,034.4,027.6,021.1,0000.0,0004.18,0002.55,0001.89
2024-04-26 05:45:00,SystemResetWarning,0818.4,5.00,000.00,025.8,024.9,000.0,034.4,027.6,021.1,0000.0,0004.26,0002.57,0001.90
2024-04-26 05:46:00,SystemResetWarning,0818.4,5.01,000.00,025.7,024.9,000.0,034.3,027.5,021.3,0000.0,0004.32,0002.55,0001.88
2024-04-26 05:47:00,SystemResetWarning,0818.4,5.01,000.00,025.7,024.8,000.0,034.3,027.5,021.5,0000.0,0004.29,0002.53,0001.87
2024-04-26 05:48:00,SystemResetWarning,0818.4,4.98,000.00,025.7,024.8,000.0,034.3,027.5,021.5,0000.0,0004.24,0002.52,0001.87
2024-04-26 05:49:00,SystemResetWarning,0818.4,4.99,000.00,025.7,024.8,000.0,034.3,027.5,021.5,0000.0,0004.30,0002.51,0001.86
2024-04-26 05:50:00,SystemResetWarning,0818.4,5.00,000.00,025.7,024.8,000.0,034.3,027.4,021.5,0000.0,0004.14,0002.44,0001.84
2024-04-26 05:51:00,SystemResetWarning,0818.4,5.00,000.00,025.7,024.8,000.0,034.3,027.4,021.6,0000.0,0004.01,0002.40,0001.83
2024-04-26 05:52:00,SystemResetWarning,0818.4,5.00,000.00,025.7,024.8,000.0,034.3,027.4,021.7,0000.0,0003.90,0002.40,0001.81
2024-04-26 05:53:00,SystemResetWarning,0818.4,5.01,000.00,025.7,024.8,000.0,034.3,027.4,021.8,0000.0,0003.92,0002.39,0001.78
2024-04-26 05:54:00,SystemResetWarning,0818.4,4.99,000.00,025.7,024.8,000.0,034.3,027.4,021.8,0000.0,0003.93,0002.37,0001.75
2024-04-26 05:55:00,SystemResetWarning,0818.4,4.99,000.00,025.7,024.8,000.0,034.3,027.5,021.9,0000.0,0003.88,0002.25,0001.71
2024-04-26 05:56:00,SystemResetWarning,0818.4,5.00,000.00,025.7,024.8,000.0,034.3,027.5,021.9,0000.0,0003.69,0002.17,0001.68
2024-04-26 05:57:00,SystemResetWarning,0818.4,5.01,000.00,025.7,024.8,000.0,034.2,027.5,021.9,0000.0,0003.84,0002.20,0001.68
2024-04-26 05:58:00,SystemResetWarning,0818.5,5.00,000.00,025.7,024.8,000.0,034.2,027.5,022.1,0000.0,0003.78,0002.17,0001.65
2024-04-26 05:59:00,SystemResetWarning,0818.5,5.01,000.00,025.7,024.8,000.0,034.2,027.5,022.1,0000.0,0003.95,0002.22,0001.64
